Location: Erdweis
(48.5167°N, 15.3500°E)
Time: 17:13:58
(UTC+00:00)

CREW DRAGON DEMO-1 DEB - Pass Details

Date: 18 September 2020
Orbit: 361 x 363 km, 51.6° (Epoch: 29 October)

Event Time Altitude Azimuth Distance (km) Brightness Sun altitude
Rises 18:31:08 0° 281° (WNW) 2,197 8.5 -14.9°
Reaches altitude 10° 18:33:13 10° 289° (WNW) 1,351 7.0 -15.2°
Maximum altitude 18:36:08 43° 3° (N) 521 3.6 -15.7°
Enters shadow 18:37:12 29° 55° (NE) 697 3.8 -15.8°
